Regional Weather Roundup
Issued by NWS Charleston, WV

Home | Current Version | Previous Version | Text Only | Print | Product List | Glossary Off
Versions: 1 2 3 4 5 6 7 8 9 10 11 12 13 14 15 16 17 18 19 20 21 22 23 24 25 26 27 28 29 30 31 32 33 34 35 36 37 38 39 40 41 42 43 44 45 46 47 48 49 50

000
ASUS41 KRLX 271310
RWRRLX
West Virginia Regional Weather Roundup
National Weather Service Charleston WV
900 AM EDT MON APR 27 2015

Note: "fair" indicates few or no clouds below 12,000 feet with no
significant weather and/or obstructions to visibility.

WVZ003-271400-
Northern Panhandle of West Virginia

CITY           SKY/WX    TMP DP  RH WIND       PRES   REMARKS
WHEELING       MOSUNNY   41  32  70 NW9       29.87S
$$

WVZ009-271400-
Northwest West Virginia

CITY           SKY/WX    TMP DP  RH WIND       PRES   REMARKS
PARKERSBURG    SUNNY     45  32  60 N7        29.94S
$$

WVZ006-271400-
Western West Virginia

CITY           SKY/WX    TMP DP  RH WIND       PRES   REMARKS
HUNTINGTON     SUNNY     47  33  58 NW3       29.95R
$$

WVZ015-271400-
West Central West Virginia

CITY           SKY/WX    TMP DP  RH WIND       PRES   REMARKS
CHARLESTON     SUNNY     46  34  62 W3        29.93R
$$

WVZ022-031-271400-
North Central West Virginia

CITY           SKY/WX    TMP DP  RH WIND       PRES   REMARKS
CLARKSBURG     SUNNY     44  33  65 NW7       29.88R
MORGANTOWN     SUNNY     42  30  62 VRB3      29.87S
$$

WVZ025-035-042-045-271400-
Southern West Virginia

CITY           SKY/WX    TMP DP  RH WIND       PRES   REMARKS
BECKLEY        SUNNY     43  30  60 N8        29.88R
LOGAN            N/A     46  32  57 CALM      29.89S
BLUEFIELD      MOSUNNY   41  34  76 VRB3      29.89R
LEWISBURG      SUNNY     44  34  67 SW5       29.86S
$$

WVZ047-271400-
Northern Mountains of West Virginia

CITY           SKY/WX    TMP DP  RH WIND       PRES   REMARKS
ELKINS         SUNNY     43  31  62 NW8       29.85S
$$

WVZ052-271400-
Eastern Panhandle of West Virginia

CITY           SKY/WX    TMP DP  RH WIND       PRES   REMARKS
MARTINSBURG    CLOUDY    50  33  52 NW10      29.80R
PETERSBURG     SUNNY     47  36  64 CALM      29.84S
$$


USA.gov is the U.S. government's official web portal to all federal, state and local government web resources and services.